Time,TemperatureF,DewpointF,PressureIn,WindDirection,WindDirectionDegrees,WindSpeedMPH,WindSpeedGustMPH,Humidity,HourlyPrecipIn,Conditions,Clouds,dailyrainin,SoftwareType,DateUTC
2013-02-13 11:12:00,40.0,27.0,29.77,ENE,71,0.0,0.0,59,0.00,,,0.00,,2013-02-13 16:12:00,
2013-02-13 11:21:00,40.0,27.0,29.77,ENE,71,0.0,0.0,59,0.00,,,0.00,,2013-02-13 16:21:00,
2013-02-13 11:32:00,41.0,27.0,29.75,ENE,73,0.0,0.0,57,0.00,,,0.00,,2013-02-13 16:32:00,
2013-02-13 11:42:00,41.0,27.0,29.75,ENE,73,0.0,0.0,57,0.00,,,0.00,,2013-02-13 16:42:00,
2013-02-13 11:52:00,43.0,27.0,29.75,ENE,70,1.0,1.0,53,0.00,,,0.00,,2013-02-13 16:52:00,
2013-02-13 12:01:00,44.0,28.0,29.73,East,92,0.0,0.0,53,0.00,,,0.00,,2013-02-13 17:01:00,
2013-02-13 12:11:00,43.0,27.0,29.72,East,94,0.0,0.0,53,0.00,,,0.00,,2013-02-13 17:11:00,
2013-02-13 12:21:00,43.0,27.0,29.72,East,94,0.0,0.0,53,0.00,,,0.00,,2013-02-13 17:21:00,
2013-02-13 12:32:00,42.0,27.0,29.71,East,99,0.0,0.0,55,0.00,,,0.00,,2013-02-13 17:32:00,
2013-02-13 12:42:00,42.0,27.0,29.71,East,99,0.0,0.0,55,0.00,,,0.00,,2013-02-13 17:42:00,
2013-02-13 12:52:00,42.0,27.0,29.71,East,99,0.0,0.0,55,0.00,,,0.00,,2013-02-13 17:52:00,
2013-02-13 13:02:00,41.0,27.0,29.70,East,90,0.0,0.0,56,0.00,,,0.00,,2013-02-13 18:02:00,
2013-02-13 13:11:00,41.0,27.0,29.70,ESE,111,2.0,2.0,57,0.00,,,0.00,,2013-02-13 18:11:00,
2013-02-13 13:23:00,41.0,27.0,29.70,ESE,111,2.0,2.0,57,0.00,,,0.00,,2013-02-13 18:23:00,
2013-02-13 13:32:00,41.0,27.0,29.70,ESE,111,2.0,2.0,57,0.00,,,0.00,,2013-02-13 18:32:00,
2013-02-13 13:42:00,41.0,27.0,29.70,ESE,111,2.0,2.0,57,0.00,,,0.00,,2013-02-13 18:42:00,
2013-02-13 13:52:00,41.0,27.0,29.68,ESE,102,0.0,0.0,58,0.00,,,0.00,,2013-02-13 18:52:00,
2013-02-13 14:01:00,41.0,27.0,29.68,ESE,102,0.0,0.0,58,0.00,,,0.00,,2013-02-13 19:01:00,
2013-02-13 14:11:00,41.0,27.0,29.68,ESE,102,0.0,0.0,58,0.00,,,0.00,,2013-02-13 19:11:00,
2013-02-13 14:21:00,41.0,27.0,29.68,ESE,102,0.0,0.0,58,0.00,,,0.00,,2013-02-13 19:21:00,
2013-02-13 14:32:00,41.0,27.0,29.68,ESE,102,0.0,0.0,58,0.00,,,0.00,,2013-02-13 19:32:00,
2013-02-13 18:53:00,33.0,30.0,29.63,ENE,63,0.0,0.0,88,-99.99,,,-99.99,,2013-02-13 23:53:00,
2013-02-13 19:02:00,33.0,30.0,29.63,ENE,63,0.0,0.0,88,-99.99,,,-99.99,,2013-02-14 00:02:00,
2013-02-13 19:11:00,33.0,30.0,29.63,ENE,63,0.0,0.0,88,-99.99,,,-99.99,,2013-02-14 00:11:00,
2013-02-13 19:22:00,33.0,30.0,29.63,ENE,63,0.0,0.0,88,-99.99,,,-99.99,,2013-02-14 00:22:00,
2013-02-13 19:32:00,33.0,30.0,29.65,ENE,63,0.0,0.0,90,-99.99,,,-99.99,,2013-02-14 00:32:00,
2013-02-13 19:43:00,33.0,30.0,29.65,ENE,63,0.0,0.0,90,-99.99,,,-99.99,,2013-02-14 00:43:00,
2013-02-13 19:52:00,33.0,31.0,29.65,ENE,63,0.0,0.0,91,0.06,,,-99.99,,2013-02-14 00:52:00,
2013-02-13 20:01:00,33.0,31.0,29.66,NE,55,0.0,0.0,91,0.07,,,-99.99,,2013-02-14 01:01:00,
2013-02-13 20:11:00,33.0,31.0,29.66,NE,55,0.0,0.0,91,0.07,,,-99.99,,2013-02-14 01:11:00,
2013-02-13 20:21:00,33.0,31.0,29.66,NE,55,0.0,0.0,91,0.07,,,-99.99,,2013-02-14 01:21:00,
2013-02-13 20:32:00,33.0,31.0,29.67,North,5,1.0,1.0,92,0.05,,,-99.99,,2013-02-14 01:32:00,
2013-02-13 20:41:00,33.0,31.0,29.67,North,5,1.0,1.0,92,0.05,,,-99.99,,2013-02-14 01:41:00,
2013-02-13 20:52:00,33.0,31.0,29.67,North,5,1.0,1.0,92,0.05,,,-99.99,,2013-02-14 01:52:00,
2013-02-13 21:02:00,33.0,31.0,29.67,North,355,0.0,0.0,93,0.02,,,-99.99,,2013-02-14 02:02:00,
2013-02-13 21:11:00,33.0,31.0,29.68,North,355,2.0,2.0,93,0.01,,,-99.99,,2013-02-14 02:11:00,
2013-02-13 21:21:00,33.0,31.0,29.68,North,355,2.0,2.0,93,0.01,,,-99.99,,2013-02-14 02:21:00,
2013-02-13 21:32:00,33.0,31.0,29.68,North,355,2.0,2.0,93,0.01,,,-99.99,,2013-02-14 02:32:00,
2013-02-13 21:41:00,33.0,31.0,29.68,North,355,2.0,2.0,93,0.01,,,-99.99,,2013-02-14 02:41:00,
2013-02-13 21:52:00,33.0,31.0,29.68,North,355,2.0,2.0,93,0.01,,,-99.99,,2013-02-14 02:52:00,
2013-02-13 22:02:00,33.0,31.0,29.68,North,355,2.0,2.0,93,0.01,,,-99.99,,2013-02-14 03:02:00,